Regional Weather Roundup
Issued by NWS

Home | Current Version | Previous Version | Text Only | Print | Product List | Glossary On
Versions: 1 2 3 4 5 6 7 8 9 10 11 12 13 14 15 16 17 18 19 20 21 22 23 24 25 26 27 28 29 30 31 32 33 34 35 36 37 38 39 40 41 42 43 44 45 46 47 48 49
000
ASUS44 KBMX 251710
RWRAL

ALABAMA REGIONAL WEATHER ROUNDUP
NATIONAL WEATHER SERVICE BIRMINGHAM AL
1100 AM CST THU DEC 25 2014

NOTE: "FAIR" INDICATES FEW OR NO CLOUDS BELOW 12,000 FEET
WITH NO SIGNIFICANT WEATHER AND/OR OBSTRUCTIONS TO VISIBILITY.

THE REMARK "TC" DENOTES TEMPERATURE IN DEGREES CELSIUS.

ALZ001>011-014-016>018-020-251800-
NORTH ALABAMA

CITY           SKY/WX    TMP DP  RH WIND       PRES   REMARKS
MUSCLE SHOALS  MOSUNNY   46  34  62 S7        30.24F
HUNTSVILLE     CLOUDY    44  35  70 CALM      30.24F
DECATUR        MOSUNNY   44  33  65 CALM      30.24F
HALEYVILLE     FAIR      43  33  67 CALM      30.24F
GADSDEN        MOSUNNY   45  34  65 SW3       30.25F
$$

ALZ012-013-022-023-030>036-040>044-251800-
WEST CENTRAL ALABAMA

CITY           SKY/WX    TMP DP  RH WIND       PRES   REMARKS
TUSCALOOSA     SUNNY     46  36  68 CALM      30.27F
$$

ALZ015-024>027-033>036-040>044-251800-
CENTRAL ALABAMA

CITY           SKY/WX    TMP DP  RH WIND       PRES   REMARKS
BIRMINGHAM     MOSUNNY   46  35  65 NE3       30.27F
MONTGOMERY     MOSUNNY   50  36  58 NW5       30.28F
SHELBY CO ARPT MOSUNNY   46  35  65 CALM      30.25F
MAXWELL AFB    MOSUNNY   48  36  64 VRB1      30.27F
GREENVILLE     FAIR      52  36  54 CALM      30.26F
$$

ALZ019-021-028-029-037-038-045>048-251800-
EAST CENTRAL ALABAMA

CITY           SKY/WX    TMP DP  RH WIND       PRES   REMARKS
ANNISTON       PTSUNNY   47  34  60 CALM      30.25F
ALEXANDER CITY PTSUNNY   49  32  52 N6        30.26F
AUBURN         SUNNY     46  34  61 NW8       30.28S
$$

ALZ051>064-251800-
SOUTHWEST ALABAMA

CITY           SKY/WX    TMP DP  RH WIND       PRES   REMARKS
MOBILE         MOSUNNY   50  35  56 NE3       30.26F
BROOKLEY FIELD SUNNY     50  38  63 NE7       30.28F
EVERGREEN      SUNNY     51  37  58 CALM      30.27F
$$

ALZ049-050-065>069-251800-
SOUTHEAST ALABAMA

CITY           SKY/WX    TMP DP  RH WIND       PRES   REMARKS
DOTHAN         SUNNY     51  37  58 NW7       30.30S
OZARK          SUNNY     51  34  51 NW6       30.26F
TROY           SUNNY     51  36  56 NW6       30.27F
EUFAULA        FAIR      53  36  52 W8        30.25F
$$


USA.gov is the U.S. government's official web portal to all federal, state and local government web resources and services.